Regional Weather Roundup
Issued by NWS

Home | Current Version | Previous Version | Graphics & Text | Print | Product List | Glossary On
Versions: 1 2 3 4 5 6 7 8 9 10 11 12 13 14 15 16 17 18 19 20 21 22 23 24 25 26 27 28 29 30 31 32 33 34 35 36 37 38 39 40 41 42 43 44 45 46 47 48 49 50
000
ASUS45 KBOU 031507
RWRCO

WEATHER ROUNDUP FOR COLORADO
NATIONAL WEATHER SERVICE DENVER/BOULDER CO
900 AM MDT WED JUN 03 2015

NOTE: "FAIR" INDICATES FEW OR NO CLOUDS BELOW 12000 FEET WITH NO
SIGNIFICANT WEATHER AND/OR OBSTRUCTIONS TO VISIBILITY.

COZ001>005-013-030-031-031600-
...NORTHWEST COLORADO...

CITY           SKY/WX    TMP DP  RH WIND       PRES   REMARKS
CRAIG          SUNNY     59  38  45 E5        30.04F
HAYDEN         SUNNY     57  34  41 E15       30.05F
MEEKER         SUNNY     59  37  44 CALM      30.05F
MOUNT WERNER   NOT AVBL
STEAMBOAT SPGS SUNNY     55  36  49 CALM      30.08F
WALDEN         SUNNY     54  34  47 CALM      30.17F
$$

COZ006>008-011-031600-
...WEST CENTRAL VALLEYS...

CITY           SKY/WX    TMP DP  RH WIND       PRES   REMARKS
GRAND JUNCTION SUNNY     67  33  28 S3        29.95S
MONTROSE       SUNNY     71  30  21 E14       30.03F
EAGLE          SUNNY     64  37  36 CALM      30.13F
RIFLE          SUNNY     61  36  39 CALM      30.01F
DELTA          SUNNY     69  32  25 E7        30.01S
NUCLA          SUNNY     68  32  26 CALM      30.09S
$$

COZ017>023-064>068-031600-
...SOUTHWEST COLORADO...

CITY           SKY/WX    TMP DP  RH WIND       PRES   REMARKS
DURANGO        SUNNY     60  35  39 NE5       30.15S
CORTEZ         SUNNY     66  33  29 CALM      30.09S
PAGOSA SPRINGS SUNNY     61  23  22 CALM      30.21S
TELLURIDE      SUNNY     59  20  22 CALM      30.25F
WOLF CREEK PAS NOT AVBL
$$

COZ009-010-012-014-032>034-037-058>063-031600-
...CENTRAL COLORADO...

CITY           SKY/WX    TMP DP  RH WIND       PRES   REMARKS
ASPEN          SUNNY     59  34  39 N7        30.13S
BUENA VISTA    SUNNY     59  25  27 N3        30.19S
COPPER MTN     SUNNY     50  10  20 S12       30.42S
BERTHOUD PASS  FAIR      41  34  75 SE6       30.46S
COTTONWOOD PAS NOT AVBL
GUNNISON       SUNNY     50  28  43 CALM      30.22F
KREMMLING      SUNNY     52  32  46 CALM      30.18F
LEADVILLE      SUNNY     51  19  28 S6        30.28S
MONARCH PASS   SUNNY     46  16  29 SW16      30.53R
SALIDA         SUNNY     58  30  34 CALM      30.25S
SUNLIGHT       SUNNY     54  23  30 CALM      30.35R
WILKERSON PASS SUNNY     52  14  22 SW5       30.42S
$$

COZ069>075-031600-
...SAN LUIS VALLEY/SANGRE DE CRISTO MOUNTAINS...

CITY           SKY/WX    TMP DP  RH WIND       PRES   REMARKS
ALAMOSA        SUNNY     58  30  34 SE3       30.18S
LA VETA PASS   PTSUNNY  N/A N/A N/A MISG      30.35R
SAGUACHE       SUNNY     59  28  31 CALM      30.21S
$$

COZ035-036-038>040-031600-
...NORTHERN COLORADO FRONT RANGE...

CITY           SKY/WX    TMP DP  RH WIND       PRES   REMARKS
DENVER INTL AP CLOUDY    56  52  86 NW8       30.10S
DMNS CITY PARK   N/A     59  51  74 N7        30.11R
AURORA         CLOUDY    55  52  89 NW8       30.12R
FRONT RANGE AP FOG       55  55 100 W9        30.11R VSB 1
ERIE MUNI ARPT CLOUDY    60  53  76 N6        30.10S
BOULDER MUN AP CLOUDY    61  50  67 N3        30.10S
CENTENNIAL     CLOUDY    57  51  80 N9        30.12R
BROOMFIELD     CLOUDY    57  48  72 NW8       30.12R
FORT COLLINS   CLOUDY    61  50  67 CALM      30.11R
LONGMONT       CLOUDY    65  53  65 NE6       30.11S
$$

COZ041-046-047-076>085-087-088-031600-
...PIKES PEAK/PALMER DIVIDE AND SOUTHERN FOOTHILLS...

CITY           SKY/WX    TMP DP  RH WIND       PRES   REMARKS
COLO. SPRINGS  MOSUNNY   66  50  56 N24G33    30.08R
A. F. ACADEMY  SUNNY     62  50  65 N22G29    30.12R
ELLICOTT       SUNNY    N/A N/A N/A N22G30    30.08R
FALCON         SUNNY     60  50  69 N20G28    30.14R
FORT CARSON    SUNNY     67  48  50 N20       30.05R
LIMON          CLOUDY    58  57  97 N8        30.07R
MONUMENT HILL  CLOUDY    54  46  76 MISG      30.17R
TRINIDAD       MOSUNNY   70  42  36 W7        30.05R
$$

COZ042>045-048>051-090-091-031600-
...NORTHEAST COLORADO...

CITY           SKY/WX    TMP DP  RH WIND       PRES   REMARKS
GREELEY ARPT   CLOUDY    61  52  72 NE7       30.08F
AKRON          CLOUDY    65  54  67 N8        30.04R
BURLINGTON     FOG       61  60  97 E15       29.97R VSB 3/4
WRAY           SUNNY     69  55  59 E3        29.98R
STERLING       MOSUNNY   64  55  72 N6        30.02S
HOLYOKE        SUNNY     68  54  60 NE5       30.00R
FORT MORGAN    CLOUDY    64  53  67 N9        30.06S
$$

COZ086-089-092>099-031600-
...SOUTHEAST COLORADO...

CITY           SKY/WX    TMP DP  RH WIND       PRES   REMARKS
PUEBLO         SUNNY     72  43  35 VRB3      29.99R
LA JUNTA       PTSUNNY   70  57  63 NE23      29.98R
LAMAR          SUNNY     71  60  68 N16       29.89R
SPRINGFIELD      N/A     77  45  32 NW24      29.91R
$$


USA.gov is the U.S. government's official web portal to all federal, state and local government web resources and services.